Zurück zum Katalog

STARLINK-3290

AktivKommunikationVLEO
NORAD 50828·PAYLOAD·🇺🇸 United States

Gestartet Jan 6, 2022 von Cape Canaveral Space Force Station

Loading…

Nächste Überflüge (nächste 24 Stunden)

TLE

AktuellSource: CelesTrak SupGP

Epoche: Sep 15, 2026, 02:20 UTC

1 50828C 22001AB  26258.09770833 -.00043828  00000+0 -14096-2 0  2584
2 50828  53.1593  28.9562 0001067  85.7316 147.7150 15.31720611    10

Verfolge STARLINK-3290 in Echtzeit mit AllMySat

Download on the App Store